User: anonymous   Login
Location: Unspecified
(0.0000°N, 0.0000°E)
Time: 10:48:59
(UTC+02:00)
Language:

Cosmos 2082 Rocket - Orbit

View from above orbital plane
View from above orbital plane
View from above satellite
View from above satellite

Ground track
Ground track

The orbit data is extracted from the following two-line orbital elements,

1 20625U 90046B   15242.17542877 -.00000279  00000-0 -12019-3 0  9995
2 20625 070.9983 088.0335 0013596 015.6841 122.5654 14.14582544304920
Epoch (UTC): 30 August 2015 04:12:37
Eccentricity: 0.0013596
inclination: 70.9983°
perigee height: 834 km
apogee height: 853 km
right ascension of ascending node: 88.0335°
argument of perigee: 15.6841°
revolutions per day: 14.14582544
mean anomaly at epoch: 122.5654°
orbit number at epoch: 30492

The dashed part of the orbit path shows where the satellite is in the earth's shadow,  

DLR